Home   Weather   Örebro   Past weeks

Flag for Sweden Past Weather in Örebro, Sweden — Yesterday and Last 2 Weeks

52 °F

Drizzle. Overcast.

Feels Like: 47 °F
Forecast: 42 / 48 °F
Wind: 16 mph from Southwest

Location: Orebro Private

Current Time: Oct 28, 2016 at 2:39:19 AM

Latest Report: Oct 28, 2016 at 2:20 AM

Visibility: N/A

Pressure: 29.80 "Hg

Humidity: 88%

Dew Point: 48 °F

Location of ÖrebroLocation

Past Weather in Örebro — Graph


Örebro Temperature Yesterday

Maximum temperature yesterday: 55 °F (at 2:50 PM)
Minimum temperature yesterday: 45 °F (at 12:20 AM)
Average temperature yesterday: 50 °F

High & Low Weather Summary for the Past Weeks

High55 °F (Oct 27, 2:50 PM)100% (Oct 26, 6:20 AM)30.54 "Hg (Oct 26, 6:20 AM)
Low30 °F (Oct 26, 6:20 AM)58% (Oct 16, 2:20 PM)29.83 "Hg (Oct 28, 12:20 AM)
Average44 °F82%30.30 "Hg
* Reported Oct 13 1:20 AM — Oct 28 1:20 AM, Örebro, Weather by CustomWeather, © 2016

Note: Actual official high and low records may vary slightly from our data, if they occured in-between our weather recording intervals... More about our weather records


Örebro Weather History for the Previous 24 Hours

Scroll right to see more
Time TempWeatherWind HumidityBarometerVisibility
1:20 AM
Fri, Oct 28
54 °FLight rain. Mostly cloudy.17 mph77%29.83 "HgN/A
12:50 AM52 °FDrizzle. Mostly cloudy.15 mph82%29.83 "HgN/A
12:20 AM52 °FOvercast.18 mph82%29.83 "HgN/A
11:50 PM
Thu, Oct 27
52 °FOvercast.15 mph82%29.86 "HgN/A
11:20 PM52 °FMostly cloudy.17 mph82%29.86 "HgN/A
10:50 PM52 °FOvercast.17 mph77%29.86 "HgN/A
10:20 PM52 °FOvercast.20 mph77%29.89 "HgN/A
9:50 PM52 °FMostly cloudy.20 mph77%29.89 "HgN/A
9:20 PM52 °FMostly cloudy.20 mph77%29.92 "HgN/A
8:50 PM52 °FMostly cloudy.18 mph77%29.92 "HgN/A
8:20 PM50 °FMostly cloudy.17 mph76%29.95 "HgN/A
7:50 PM52 °FMostly cloudy.15 mph72%29.98 "HgN/A
7:20 PM52 °FPartly cloudy.14 mph72%29.98 "HgN/A
6:50 PM50 °FPassing clouds.16 mph76%29.98 "HgN/A
6:20 PM52 °FClear.20 mph72%29.98 "Hg10 mi
5:50 PM52 °FClear.18 mph72%29.98 "Hg10 mi
5:20 PM52 °FClear.16 mph72%30.01 "Hg10 mi
4:50 PM52 °FSunny.20 mph72%29.98 "Hg10 mi
4:20 PM54 °FSunny.20 mph67%30.01 "Hg10 mi
3:50 PM54 °FSunny.18 mph72%30.01 "Hg10 mi
3:20 PM54 °FPassing clouds.17 mph72%30.01 "HgN/A
2:50 PM55 °FPassing clouds.12 mph72%30.01 "HgN/A
2:20 PM54 °FPassing clouds.14 mph72%30.01 "HgN/A
1:50 PM54 °FPassing clouds.13 mph77%30.01 "HgN/A
1:20 PM54 °FPassing clouds.15 mph72%30.04 "HgN/A
12:50 PM54 °FPartly sunny.14 mph77%30.04 "HgN/A
12:20 PM52 °FPartly sunny.13 mph82%30.04 "HgN/A
11:50 AM52 °FBroken clouds.10 mph82%30.04 "HgN/A
11:20 AM52 °FPartly sunny.10 mph82%30.04 "HgN/A
10:50 AM50 °FPartly sunny.12 mph88%30.04 "HgN/A
10:20 AM52 °FPartly sunny.12 mph82%30.04 "HgN/A
9:50 AM50 °FPartly sunny.10 mph88%30.01 "HgN/A
9:20 AM50 °FPartly sunny.10 mph88%30.01 "HgN/A
8:50 AM50 °FBroken clouds.10 mph88%30.01 "HgN/A
8:20 AM50 °FBroken clouds.12 mph88%30.01 "HgN/A
7:50 AM50 °FPassing clouds.12 mph88%30.01 "HgN/A
7:20 AM48 °FLow clouds.12 mph94%30.01 "HgN/A
6:50 AM48 °FFog.12 mph94%30.01 "Hg5 mi
6:20 AM48 °FDrizzle. Low clouds.12 mph87%29.98 "Hg3 mi
5:50 AM48 °FFog.12 mph87%29.98 "Hg4 mi
4:50 AM46 °FLow clouds.10 mph93%30.01 "HgN/A
4:20 AM46 °FLow clouds.10 mph93%30.01 "HgN/A
3:50 AM46 °FLow clouds.12 mph87%30.01 "HgN/A
3:20 AM46 °FLow clouds.13 mph87%30.01 "HgN/A
2:50 AM46 °FLow clouds.12 mph87%30.01 "HgN/A
2:20 AM45 °FDrizzle. Overcast.9 mph93%30.04 "Hg6 mi
Weather by CustomWeather, © 2016

See weather overviewHow to use our weather pages